Flag for U.S.A. Weather past 2 weeks in Canton, Ohio, U.S.A.

Now
67 °F

Scattered clouds.


Feels Like: 67 °F
Forecast: 46 / 67 °F
Wind: No wind

Location: Akron-Canton Regional Airport

Current Time: Sep 17, 2014 at 3:45:00 PM

Latest Report: Sep 17, 2014 at 2:51 PM


Visibility: 10 mi

Pressure: 30.00 "Hg

Humidity: 44%

Dew point: 44 °F

Location of CantonLocation

Historic Weather in Canton — Graph

°F

Canton temperature yesterday

Maximum temperature yesterday: 67 °F (at 5:51 PM)
Minimum temperature yesterday: 53 °F (at 4:51 AM)
Average temperature yesterday: 58 °F

Past Weeks' High & Low Weather Summary

 TemperatureHumidityPressure
High87 °F (Sep 5, 2:51 PM)93% (Sep 3, 4:51 AM)30.36 "Hg (Sep 3, 4:51 AM)
Low43 °F (Sep 14, 5:51 AM)38% (Sep 3, 3:51 PM)29.70 "Hg (Sep 11, 2:51 AM)
Average65 °F72%30.09 "Hg
* Reported Sep 2 1:51 PM — Sep 17 1:51 PM, Canton, Weather by CustomWeather, © 2014

Note: Actual official high and low records may vary slightly from our data, if they occured in-between our weather recording intervals... More about our weather records

Advertising

Canton weather history for previous 24 hours

 ConditionsComfort  
Time TempWeatherWind HumidityBarometerVisibility
1:51 PM
Sep 17
67 °FScattered clouds.8 mph45%30.01 "Hg10 mi
12:51 PM65 °FScattered clouds.6 mph45%30.03 "Hg10 mi
11:51 AM63 °FScattered clouds.No wind47%30.04 "Hg10 mi
10:51 AM62 °FScattered clouds.No wind58%30.06 "Hg10 mi
9:51 AM59 °FScattered clouds.5 mph69%30.07 "Hg10 mi
8:51 AM55 °FPartly sunny.5 mph83%30.07 "Hg5 mi
7:51 AM51 °FFog.3 mph86%30.08 "Hg5 mi
6:51 AM51 °FOvercast.No wind86%30.07 "Hg7 mi
5:51 AM48 °FPassing clouds.No wind86%30.06 "Hg7 mi
4:51 AM49 °FClear.No wind86%30.07 "Hg10 mi
3:51 AM49 °FFog.No wind90%30.07 "Hg5 mi
2:51 AM49 °FClear.No wind86%30.09 "Hg9 mi
1:51 AM51 °FClear.No wind83%30.09 "Hg10 mi
12:51 AM51 °FClear.No wind80%30.09 "Hg10 mi
11:51 PM
Sep 16
53 °FPassing clouds.3 mph80%30.09 "Hg10 mi
10:51 PM54 °FPassing clouds.5 mph80%30.09 "Hg10 mi
9:51 PM54 °FPassing clouds.5 mph80%30.10 "Hg10 mi
8:51 PM57 °FPassing clouds.8 mph72%30.09 "Hg10 mi
7:51 PM58 °FScattered clouds.7 mph72%30.08 "Hg10 mi
6:51 PM62 °FScattered clouds.6 mph65%30.07 "Hg10 mi
5:51 PM67 °FScattered clouds.3 mph53%30.07 "Hg10 mi
4:51 PM66 °FScattered clouds.7 mph52%30.07 "Hg10 mi
3:51 PM66 °FPartly sunny.5 mph56%30.08 "Hg10 mi
Weather by CustomWeather, © 2014

See weather overviewHow to use our weather pages